Location: Biltmore Gardens
(41.6070°N, 83.4666°W)
Time: 13:13:52
(UTC+00:00)

ARIANE 5 R/B - Pass Details

Date: 14 July 2020
Orbit: 749 x 794 km, 98.6° (Epoch: 04 August)

Event Time Altitude Azimuth Distance (km) Brightness Sun altitude
Rises 07:53:44 0° 20° (NNE) 3,238 7.2 -19.6°
Reaches altitude 10° 07:56:08 10° 27° (NNE) 2,314 6.2 -19.4°
Maximum altitude 08:01:00 44° 99° (E) 1,061 3.4 -18.9°
Enters shadow 08:04:30 18° 164° (SSE) 1,821 4.1 -18.5°
